User: anonymous   Login
Location: Vale
(35.4830°N, 81.3830°W)
Time: 09:25:06
(UTC-05:00)
Language:

Oscar 11 - Orbit

View from above orbital plane
View from above orbital plane
View from above satellite
View from above satellite

Ground track
Ground track

The orbit data is extracted from the following two-line orbital elements,

1 14781U 84021B   15025.39512964  .00000667  00000-0  90304-4 0  7243
2 14781 097.8222 085.8696 0009259 168.9424 191.1995 14.82108347660874
Epoch (UTC): 25 January 2015 09:28:59
Eccentricity: 0.0009259
inclination: 97.8222°
perigee height: 616 km
apogee height: 629 km
right ascension of ascending node: 85.8696°
argument of perigee: 168.9424°
revolutions per day: 14.82108347
mean anomaly at epoch: 191.1995°
orbit number at epoch: 66087

The dashed part of the orbit path shows where the satellite is in the earth's shadow,  

DLR